DAH4002 DAAG-DTTA

Flight info

Callsign DAH4002
Flight time 0h 50m
Altitude 39000
Route BJA1D BJA UA411 MORJA UM978 KEMIR UA411 TUC
Aircraft A20N/M-SDE2E3FGHIRWXY/LB1

Departure

Time 2026-04-30 19:34
Airport Houari Boumediene Airport (DAAG)

Arrival

Time 2026-04-30 20:25
Airport Tunis Carthage International Airport (DTTA)
Time Latitude Longitude Altitude Speed Heading
2026-04-30 19:14 36.69700 3.20109 73 ft 0 kts 90°
2026-04-30 19:24 36.69700 3.20093 73 ft 4 kts 89°
2026-04-30 19:25 36.69705 3.19996 66 ft 4 kts 140°
2026-04-30 19:26 36.69716 3.19991 62 ft 0 kts 182°
2026-04-30 19:28 36.69682 3.19989 67 ft 11 kts 182°
2026-04-30 19:28 36.69454 3.19962 69 ft 12 kts 220°
2026-04-30 19:29 36.69334 3.19894 71 ft 9 kts 187°
2026-04-30 19:29 36.69310 3.19865 70 ft 7 kts 254°
2026-04-30 19:30 36.69313 3.19640 73 ft 10 kts 270°
2026-04-30 19:30 36.69317 3.19454 67 ft 15 kts 271°
2026-04-30 19:31 36.69325 3.19141 70 ft 28 kts 271°
2026-04-30 19:31 36.69328 3.18870 74 ft 34 kts 270°
2026-04-30 19:31 36.69346 3.18267 74 ft 34 kts 272°
2026-04-30 19:32 36.69352 3.17975 74 ft 33 kts 272°
2026-04-30 19:32 36.69360 3.17691 67 ft 33 kts 272°
2026-04-30 19:32 36.69368 3.17409 74 ft 32 kts 271°
2026-04-30 19:32 36.69372 3.17177 74 ft 23 kts 270°
2026-04-30 19:33 36.69289 3.17100 76 ft 13 kts 182°
2026-04-30 19:33 36.69226 3.17113 86 ft 7 kts 151°
2026-04-30 19:33 36.69203 3.17157 84 ft 6 kts 103°
2026-04-30 19:33 36.69202 3.17214 83 ft 13 kts 91°
2026-04-30 19:34 36.69194 3.17599 80 ft 78 kts 92°
2026-04-30 19:34 36.69176 3.18548 84 ft 139 kts 92°
2026-04-30 19:34 36.69079 3.21309 885 ft 165 kts 92°
2026-04-30 19:35 36.69005 3.22764 1452 ft 169 kts 94°
2026-04-30 19:35 36.68907 3.24229 2084 ft 171 kts 96°
2026-04-30 19:35 36.68770 3.25725 2783 ft 178 kts 98°
2026-04-30 19:35 36.68574 3.27272 3515 ft 185 kts 100°
2026-04-30 19:36 36.68336 3.28908 4042 ft 202 kts 101°
2026-04-30 19:36 36.68077 3.30712 4608 ft 217 kts 101°
2026-04-30 19:36 36.67532 3.34486 6128 ft 226 kts 102°
2026-04-30 19:37 36.67249 3.36432 6910 ft 230 kts 102°
2026-04-30 19:37 36.66968 3.38395 7585 ft 238 kts 101°
2026-04-30 19:37 36.66752 3.40542 8051 ft 258 kts 96°
2026-04-30 19:37 36.66607 3.42754 8870 ft 259 kts 95°
2026-04-30 19:38 36.66474 3.45070 9388 ft 278 kts 95°
2026-04-30 19:38 36.66294 3.47551 9920 ft 293 kts 96°
2026-04-30 19:38 36.66065 3.50118 10464 ft 307 kts 97°
2026-04-30 19:38 36.65795 3.52846 10813 ft 329 kts 97°
2026-04-30 19:39 36.65491 3.55744 11126 ft 349 kts 98°
2026-04-30 19:39 36.65228 3.58843 11435 ft 368 kts 92°
2026-04-30 19:39 36.65261 3.62040 11881 ft 379 kts 87°
2026-04-30 19:39 36.65414 3.65389 12504 ft 385 kts 86°
2026-04-30 19:40 36.65582 3.68691 13192 ft 390 kts 86°
2026-04-30 19:40 36.65754 3.72078 13932 ft 394 kts 86°
2026-04-30 19:40 36.65924 3.75507 14570 ft 399 kts 87°
2026-04-30 19:40 36.66093 3.78991 15178 ft 404 kts 87°
2026-04-30 19:41 36.66260 3.82461 15781 ft 409 kts 87°
2026-04-30 19:41 36.66430 3.86030 16399 ft 413 kts 88°
2026-04-30 19:41 36.66599 3.89628 16996 ft 418 kts 88°
2026-04-30 19:41 36.66769 3.93266 17604 ft 422 kts 88°
2026-04-30 19:42 36.66938 3.96900 18158 ft 428 kts 88°
2026-04-30 19:42 36.67109 4.00610 18659 ft 433 kts 88°
2026-04-30 19:42 36.67281 4.04366 19157 ft 436 kts 88°
2026-04-30 19:42 36.67454 4.08155 19670 ft 440 kts 88°
2026-04-30 19:43 36.67626 4.11974 20159 ft 444 kts 88°
2026-04-30 19:43 36.67799 4.15842 20658 ft 448 kts 88°
2026-04-30 19:43 36.67972 4.19724 21156 ft 451 kts 88°
2026-04-30 19:44 36.68318 4.27593 22090 ft 459 kts 88°
2026-04-30 19:44 36.68490 4.31535 22552 ft 462 kts 88°
2026-04-30 19:44 36.68663 4.35550 23000 ft 466 kts 88°
2026-04-30 19:44 36.68836 4.39576 23443 ft 469 kts 88°
2026-04-30 19:45 36.69009 4.43657 23847 ft 473 kts 88°
2026-04-30 19:45 36.69182 4.47757 24211 ft 476 kts 88°
2026-04-30 19:45 36.69356 4.51905 24561 ft 479 kts 88°
2026-04-30 19:45 36.69528 4.56064 24933 ft 483 kts 88°
2026-04-30 19:46 36.69700 4.60255 25296 ft 486 kts 88°
2026-04-30 19:46 36.69870 4.64410 25631 ft 489 kts 88°
2026-04-30 19:46 36.70042 4.68660 25965 ft 492 kts 88°
2026-04-30 19:46 36.70213 4.72921 26321 ft 494 kts 88°
2026-04-30 19:47 36.70383 4.77221 26653 ft 497 kts 88°
2026-04-30 19:47 36.70496 4.80073 26874 ft 499 kts 88°
2026-04-30 19:47 36.70722 4.85872 27295 ft 503 kts 88°
2026-04-30 19:47 36.70891 4.90245 27617 ft 506 kts 88°
2026-04-30 19:48 36.71059 4.94633 27927 ft 508 kts 88°
2026-04-30 19:48 36.71226 4.99037 28324 ft 508 kts 88°
2026-04-30 19:48 36.71390 5.03425 28749 ft 508 kts 88°
2026-04-30 19:48 36.71567 5.07771 29161 ft 508 kts 86°
2026-04-30 19:49 36.71893 5.12150 29533 ft 508 kts 83°
2026-04-30 19:49 36.72826 5.20891 30292 ft 509 kts 82°
2026-04-30 19:49 36.73327 5.25246 30628 ft 509 kts 82°
2026-04-30 19:50 36.73822 5.29613 30962 ft 509 kts 82°
2026-04-30 19:50 36.74304 5.33996 31296 ft 509 kts 82°
2026-04-30 19:50 36.74766 5.38310 31615 ft 509 kts 82°
2026-04-30 19:50 36.75231 5.42744 31942 ft 509 kts 82°
2026-04-30 19:51 36.75676 5.47054 32252 ft 509 kts 82°
2026-04-30 19:51 36.76124 5.51432 32553 ft 509 kts 83°
2026-04-30 19:51 36.76570 5.55807 32848 ft 509 kts 83°
2026-04-30 19:51 36.77015 5.60189 33145 ft 509 kts 83°
2026-04-30 19:52 36.77460 5.64583 33417 ft 510 kts 83°
2026-04-30 19:52 36.77902 5.68955 33692 ft 510 kts 83°
2026-04-30 19:52 36.78339 5.73297 33988 ft 510 kts 83°
2026-04-30 19:52 36.78780 5.77689 34196 ft 510 kts 83°
2026-04-30 19:53 36.79219 5.82077 34473 ft 510 kts 83°
2026-04-30 19:53 36.79628 5.86466 34721 ft 509 kts 86°
2026-04-30 19:53 36.79822 5.90866 34957 ft 509 kts 88°
2026-04-30 19:53 36.79975 5.95264 35191 ft 508 kts 88°
2026-04-30 19:54 36.80100 5.99675 35452 ft 507 kts 89°
2026-04-30 19:54 36.80208 6.04074 35707 ft 507 kts 89°
2026-04-30 19:54 36.80308 6.08452 35932 ft 506 kts 89°
2026-04-30 19:54 36.80407 6.12845 36148 ft 506 kts 89°
2026-04-30 19:55 36.80505 6.17184 36366 ft 506 kts 89°
2026-04-30 19:55 36.80604 6.21563 36584 ft 505 kts 89°
2026-04-30 19:55 36.80703 6.25935 36806 ft 505 kts 89°
2026-04-30 19:55 36.80802 6.30309 37009 ft 505 kts 88°
2026-04-30 19:56 36.80899 6.34687 37207 ft 505 kts 89°
2026-04-30 19:56 36.80995 6.39072 37413 ft 504 kts 88°
2026-04-30 19:56 36.81090 6.43441 37641 ft 503 kts 88°
2026-04-30 19:56 36.81184 6.47797 37862 ft 502 kts 88°
2026-04-30 19:57 36.81275 6.52151 38039 ft 502 kts 88°
2026-04-30 19:57 36.81365 6.56509 38207 ft 502 kts 88°
2026-04-30 19:57 36.81451 6.60808 38623 ft 495 kts 88°
2026-04-30 19:57 36.81535 6.65077 38991 ft 490 kts 88°
2026-04-30 19:58 36.81617 6.69317 39097 ft 491 kts 88°
2026-04-30 19:58 36.81699 6.73601 39110 ft 494 kts 88°
2026-04-30 19:58 36.81859 6.82218 39097 ft 500 kts 89°
2026-04-30 19:59 36.82012 6.90831 39102 ft 500 kts 89°
2026-04-30 20:00 36.82232 7.03821 39098 ft 499 kts 88°
2026-04-30 20:00 36.82370 7.12483 39102 ft 499 kts 89°
2026-04-30 20:01 36.82565 7.25397 39106 ft 499 kts 89°
2026-04-30 20:01 36.82688 7.34051 39102 ft 498 kts 89°
2026-04-30 20:02 36.82860 7.47020 39099 ft 498 kts 89°
2026-04-30 20:03 36.83018 7.59975 39076 ft 498 kts 89°
2026-04-30 20:03 36.83115 7.68571 39078 ft 498 kts 89°
2026-04-30 20:04 36.83206 7.77201 39070 ft 497 kts 89°
2026-04-30 20:05 36.83305 7.90098 39069 ft 498 kts 89°
2026-04-30 20:05 36.83359 8.03066 39084 ft 498 kts 90°
2026-04-30 20:06 36.83389 8.11696 38955 ft 498 kts 90°
2026-04-30 20:06 36.83402 8.16010 38774 ft 493 kts 90°
2026-04-30 20:06 36.83414 8.20213 38605 ft 485 kts 90°
2026-04-30 20:07 36.83424 8.24469 37662 ft 493 kts 90°
2026-04-30 20:07 36.83433 8.28751 36733 ft 501 kts 90°
2026-04-30 20:07 36.83448 8.37539 35036 ft 511 kts 90°
2026-04-30 20:08 36.83452 8.41990 34186 ft 516 kts 90°
2026-04-30 20:08 36.83455 8.46501 33173 ft 522 kts 90°
2026-04-30 20:08 36.83457 8.51028 32266 ft 525 kts 90°
2026-04-30 20:08 36.83458 8.55582 31773 ft 519 kts 90°
2026-04-30 20:09 36.83456 8.59988 31243 ft 510 kts 90°
2026-04-30 20:09 36.83453 8.64410 30459 ft 510 kts 90°
2026-04-30 20:09 36.83488 8.73269 28708 ft 509 kts 89°
2026-04-30 20:10 36.83549 8.82089 26452 ft 511 kts 89°
2026-04-30 20:10 36.83578 8.86476 25527 ft 512 kts 89°
2026-04-30 20:10 36.83605 8.90931 24579 ft 513 kts 89°
2026-04-30 20:11 36.83648 8.99703 22014 ft 502 kts 89°
2026-04-30 20:11 36.83666 9.04040 20667 ft 495 kts 89°
2026-04-30 20:11 36.83682 9.08305 19509 ft 486 kts 89°
2026-04-30 20:12 36.83708 9.16494 17616 ft 460 kts 89°
2026-04-30 20:12 36.83717 9.20432 16787 ft 446 kts 89°
2026-04-30 20:12 36.83725 9.24248 15986 ft 437 kts 89°
2026-04-30 20:13 36.83732 9.28048 15173 ft 438 kts 89°
2026-04-30 20:13 36.83739 9.31846 14358 ft 437 kts 89°
2026-04-30 20:13 36.83744 9.35586 13509 ft 435 kts 88°
2026-04-30 20:13 36.83739 9.39394 12664 ft 431 kts 90°
2026-04-30 20:14 36.83373 9.43054 11762 ft 430 kts 100°
2026-04-30 20:14 36.82705 9.46641 11427 ft 411 kts 103°
2026-04-30 20:14 36.82019 9.49991 11124 ft 385 kts 103°
2026-04-30 20:14 36.81369 9.53088 10807 ft 362 kts 103°
2026-04-30 20:15 36.80736 9.56069 10496 ft 350 kts 103°
2026-04-30 20:15 36.80116 9.58972 10172 ft 342 kts 103°
2026-04-30 20:15 36.79505 9.61823 9768 ft 335 kts 103°
2026-04-30 20:15 36.78913 9.64578 9368 ft 329 kts 103°
2026-04-30 20:16 36.78320 9.67337 8966 ft 332 kts 103°
2026-04-30 20:16 36.77715 9.70144 8549 ft 334 kts 104°
2026-04-30 20:16 36.77117 9.72907 8126 ft 333 kts 104°
2026-04-30 20:16 36.76514 9.75694 7688 ft 330 kts 104°
2026-04-30 20:17 36.75921 9.78422 7260 ft 327 kts 104°
2026-04-30 20:17 36.75329 9.81147 6828 ft 324 kts 104°
2026-04-30 20:17 36.74745 9.83836 6395 ft 321 kts 104°
2026-04-30 20:17 36.74163 9.86508 5944 ft 319 kts 104°
2026-04-30 20:18 36.73583 9.89163 5500 ft 316 kts 105°
2026-04-30 20:18 36.73009 9.91795 5060 ft 314 kts 105°
2026-04-30 20:18 36.72436 9.94415 4614 ft 311 kts 105°
2026-04-30 20:18 36.71867 9.97011 4165 ft 309 kts 104°
2026-04-30 20:19 36.71312 9.99541 3725 ft 306 kts 104°
2026-04-30 20:19 36.70746 10.02120 3283 ft 303 kts 104°
2026-04-30 20:19 36.70198 10.04611 2836 ft 300 kts 103°
2026-04-30 20:19 36.69650 10.07106 2471 ft 295 kts 103°
2026-04-30 20:20 36.69115 10.09541 2116 ft 284 kts 103°
2026-04-30 20:20 36.68615 10.11808 1904 ft 263 kts 104°
2026-04-30 20:20 36.68215 10.13920 1878 ft 237 kts 95°
2026-04-30 20:20 36.68309 10.15836 1900 ft 212 kts 72°
2026-04-30 20:21 36.69039 10.17311 1907 ft 201 kts 42°
2026-04-30 20:21 36.70184 10.18308 1891 ft 201 kts 29°
2026-04-30 20:21 36.71472 10.18980 1890 ft 201 kts 15°
2026-04-30 20:21 36.72841 10.19352 1883 ft 200 kts 12°
2026-04-30 20:22 36.74135 10.19694 1874 ft 185 kts 12°
2026-04-30 20:22 36.75372 10.20039 1765 ft 181 kts 13°
2026-04-30 20:22 36.76595 10.20385 1503 ft 177 kts 13°
2026-04-30 20:22 36.77769 10.20704 1266 ft 165 kts 12°
2026-04-30 20:23 36.78850 10.20997 1042 ft 159 kts 12°
2026-04-30 20:23 36.79907 10.21285 827 ft 150 kts 12°
2026-04-30 20:23 36.80891 10.21554 644 ft 140 kts 12°
2026-04-30 20:23 36.81823 10.21807 464 ft 136 kts 12°
2026-04-30 20:24 36.82742 10.22060 291 ft 135 kts 12°
2026-04-30 20:24 36.83663 10.22304 125 ft 135 kts 12°
2026-04-30 20:24 36.84559 10.22548 33 ft 122 kts 12°
2026-04-30 20:24 36.85269 10.22743 36 ft 92 kts 12°
2026-04-30 20:25 36.86258 10.23017 35 ft 63 kts 11°
2026-04-30 20:25 36.86589 10.23104 34 ft 35 kts 11°
2026-04-30 20:26 36.86779 10.22987 34 ft 9 kts 279°
2026-04-30 20:26 36.86737 10.22870 33 ft 7 kts 217°
2026-04-30 20:26 36.86694 10.22855 33 ft 6 kts 193°
2026-04-30 20:27 36.86606 10.22830 34 ft 9 kts 192°
2026-04-30 20:27 36.86481 10.22797 34 ft 7 kts 189°
2026-04-30 20:28 36.86459 10.22792 34 ft 0 kts 189°